Flag for Japan Weather past 2 weeks in Suzuka, Japan

Now
48 °F

Cool.


Feels Like: 47 °F
Forecast: 40 / 54 °F
Wind: 5 mph from West

Location: Tsu

Current Time: Jan 27, 2015 at 7:43:19 AM

Latest Report: Jan 27, 2015 at 5:00 AM


Visibility: N/A

Pressure: 29.89 "Hg

Humidity: 89%

Dew point: 45 °F

Location of SuzukaLocation

Historic Weather in Suzuka — Graph

°F

Suzuka temperature yesterday

Maximum temperature yesterday: 47 °F (at 3:00 PM)
Minimum temperature yesterday: 39 °F (at 7:00 AM)
Average temperature yesterday: 44 °F

Past Weeks' High & Low Weather Summary

 TemperatureHumidityPressure
High53 °F (Jan 25, 1:00 PM)96% (Jan 22, 2:00 PM)30.49 "Hg (Jan 22, 2:00 PM)
Low33 °F (Jan 14, 5:00 AM)36% (Jan 24, 2:00 PM)29.61 "Hg (Jan 23, 1:00 AM)
Average43 °F66%30.14 "Hg
* Reported Jan 12 5:00 AM — Jan 27 5:00 AM, Suzuka, Weather by CustomWeather, © 2014

Note: Actual official high and low records may vary slightly from our data, if they occured in-between our weather recording intervals... More about our weather records

Advertising

Suzuka weather history for previous 24 hours

 ConditionsComfort  
Time TempWeatherWind HumidityBarometerVisibility
5:00 AM
Jan 27
48 °FCool.5 mph89%29.89 "HgN/A
4:00 AM47 °FCool.5 mph94%29.87 "HgN/A
3:00 AM46 °FCool.3 mph96%29.89 "HgN/A
2:00 AM46 °FCool.3 mph96%29.91 "HgN/A
1:00 AM46 °FCool.5 mph96%29.94 "HgN/A
12:00 AM46 °FCool.2 mph96%29.96 "HgN/A
11:00 PM
Jan 26
46 °FCool.5 mph95%29.99 "HgN/A
10:00 PM45 °FQuite cool.3 mph95%30.01 "HgN/A
9:00 PM45 °FRain showers. Overcast.3 mph94%30.03 "Hg2 mi
8:00 PM45 °FQuite cool.5 mph94%30.05 "HgN/A
7:00 PM46 °FCool.1 mph92%30.08 "HgN/A
6:00 PM46 °FCool.1 mph89%30.09 "HgN/A
5:00 PM47 °FCool.3 mph85%30.10 "HgN/A
4:00 PM47 °FCool.2 mph81%30.11 "HgN/A
3:00 PM47 °FOvercast.1 mph74%30.12 "Hg5 mi
2:00 PM47 °FCool.1 mph73%30.14 "HgN/A
1:00 PM46 °FCool.1 mph73%30.18 "HgN/A
11:00 AM47 °FCool.3 mph65%30.26 "HgN/A
10:00 AM46 °FCool.3 mph67%30.29 "HgN/A
9:00 AM44 °FPartly sunny.2 mph72%30.30 "Hg6 mi
8:00 AM40 °FQuite cool.5 mph80%30.31 "HgN/A
7:00 AM39 °FChilly.3 mph82%30.32 "HgN/A
Weather by CustomWeather, © 2014

See weather overviewHow to use our weather pages